Flag for Germany Weather past 2 weeks in Nürtingen, Baden-Württemberg, Germany

Now
41 °F

Fog.


Feels Like: 41 °F
Forecast: 41 / 61 °F
Wind: 1 mph from Northwest

Location: Stuttgart-Echterdingen

Current Time: Sep 24, 2014 at 4:44:49 AM

Latest Report: Sep 24, 2014 at 4:20 AM


Visibility: N/A

Pressure: 30.01 "Hg

Humidity: 93%

Dew point: 39 °F

Location of NürtingenLocation

Historic Weather in Nürtingen — Graph

°F

Nürtingen temperature yesterday

Maximum temperature yesterday: 59 °F (at 4:20 PM)
Minimum temperature yesterday: 41 °F (at 5:20 AM)
Average temperature yesterday: 49 °F

Past Weeks' High & Low Weather Summary

 TemperatureHumidityPressure
High75 °F (Sep 17, 3:20 PM)100% (Sep 12, 3:20 PM)30.21 "Hg (Sep 12, 3:20 PM)
Low39 °F (Sep 24, 3:20 AM)52% (Sep 10, 6:20 PM)29.89 "Hg (Sep 17, 2:50 PM)
Average59 °F85%30.03 "Hg
* Reported Sep 9 3:20 AM — Sep 24 3:20 AM, Nürtingen, Weather by CustomWeather, © 2014

Note: Actual official high and low records may vary slightly from our data, if they occured in-between our weather recording intervals... More about our weather records

Advertising

Nürtingen weather history for previous 24 hours

 ConditionsComfort  
Time TempWeatherWind HumidityBarometerVisibility
3:20 AM
Sep 24
39 °FClear.1 mph100%30.04 "Hg10 mi
2:50 AM41 °FClear.2 mph93%30.04 "Hg10 mi
2:20 AM43 °FClear.1 mph93%30.04 "Hg10 mi
1:50 AM43 °FClear.1 mph93%30.04 "Hg10 mi
1:20 AM43 °FClear.2 mph93%30.07 "Hg10 mi
12:50 AM43 °FClear.2 mph93%30.07 "Hg10 mi
12:20 AM45 °FClear.1 mph93%30.07 "Hg10 mi
11:50 PM
Sep 23
45 °FClear.1 mph87%30.07 "Hg10 mi
11:20 PM46 °FClear.1 mph87%30.07 "Hg10 mi
10:50 PM46 °FClear.1 mph87%30.07 "Hg10 mi
10:20 PM46 °FClear.2 mph87%30.07 "Hg10 mi
9:50 PM48 °FClear.3 mph82%30.07 "Hg10 mi
9:20 PM50 °FClear.2 mph76%30.07 "Hg10 mi
8:50 PM50 °FClear.2 mph76%30.09 "Hg10 mi
8:20 PM52 °FClear.6 mph72%30.07 "Hg10 mi
7:50 PM54 °FSunny.6 mph72%30.07 "Hg10 mi
7:20 PM54 °FSunny.7 mph72%30.07 "Hg10 mi
6:50 PM55 °FSunny.7 mph67%30.07 "Hg10 mi
6:20 PM57 °FSunny.9 mph63%30.07 "Hg10 mi
5:50 PM57 °FSunny.8 mph63%30.07 "Hg10 mi
5:20 PM57 °FSunny.6 mph63%30.07 "Hg10 mi
4:50 PM59 °FSunny.3 mph55%30.09 "Hg10 mi
4:20 PM59 °FSunny.6 mph59%30.09 "Hg10 mi
3:50 PM57 °FPassing clouds.6 mph59%30.09 "HgN/A
3:20 PM57 °FPassing clouds.6 mph59%30.12 "HgN/A
2:50 PM57 °FPassing clouds.2 mph59%30.12 "HgN/A
2:20 PM57 °FPassing clouds.3 mph59%30.15 "HgN/A
1:50 PM55 °FPassing clouds.3 mph63%30.15 "HgN/A
1:20 PM54 °FScattered clouds.3 mph63%30.18 "HgN/A
12:20 PM52 °FPartly sunny.1 mph77%30.18 "HgN/A
11:50 AM52 °FPartly sunny.3 mph77%30.18 "HgN/A
11:20 AM50 °FPartly sunny.3 mph82%30.21 "HgN/A
10:50 AM48 °FPartly sunny.3 mph82%30.21 "HgN/A
10:20 AM48 °FPartly sunny.1 mph87%30.21 "HgN/A
9:50 AM46 °FPartly sunny.1 mph93%30.21 "HgN/A
9:20 AM46 °FPartly sunny.2 mph87%30.18 "HgN/A
8:50 AM45 °FPartly sunny.2 mph87%30.18 "HgN/A
8:20 AM41 °FScattered clouds.1 mph100%30.18 "HgN/A
7:50 AM41 °FPassing clouds.1 mph93%30.18 "HgN/A
7:20 AM41 °FPassing clouds.1 mph93%30.18 "HgN/A
6:50 AM41 °FPassing clouds.2 mph93%30.18 "HgN/A
6:20 AM41 °FPassing clouds.2 mph100%30.18 "HgN/A
5:50 AM43 °FPassing clouds.1 mph93%30.18 "HgN/A
5:20 AM41 °FPassing clouds.3 mph93%30.15 "HgN/A
4:50 AM43 °FPartly cloudy.2 mph87%30.15 "HgN/A
4:20 AM45 °FPassing clouds.2 mph87%30.15 "HgN/A
Weather by CustomWeather, © 2014

See weather overviewHow to use our weather pages